Flag for United Kingdom Weather past 2 weeks in Lerwick (Shetland Islands), Scotland, United Kingdom

Now
54 °F

Partly sunny.


Feels Like: 52 °F
Forecast: 51 / 56 °F
Wind: 8 mph from Southeast

Location: Lerwick

Current Time: Aug 2, 2015 at 8:05:40 PM

Latest Report: Aug 2, 2015 at 7:00 PM


Visibility: 31 mi

Pressure: 30.01 "Hg

Humidity: 84%

Dew point: 49 °F

Location of Lerwick (Shetland Islands)Location

Historic Weather in Lerwick (Shetland Islands) — Graph

°F

Lerwick (Shetland Islands) temperature yesterday

Maximum temperature yesterday: 56 °F (at 3:00 PM)
Minimum temperature yesterday: 51 °F (at 11:00 PM)
Average temperature yesterday: 53 °F

Past Weeks' High & Low Weather Summary

 TemperatureHumidityPressure
High58 °F (Aug 2, 1:00 PM)99% (Jul 19, 3:00 AM)30.01 "Hg (Jul 19, 3:00 AM)
Low42 °F (Jul 31, 5:00 AM)57% (Jul 26, 3:00 PM)29.44 "Hg (Jul 18, 6:00 PM)
Average51 °F84%29.74 "Hg
* Reported Jul 18 6:00 PM — Aug 2 6:00 PM, Lerwick (Shetland Islands), Weather by CustomWeather, © 2015

Note: Actual official high and low records may vary slightly from our data, if they occured in-between our weather recording intervals... More about our weather records

Advertising

Lerwick (Shetland Islands) weather history for previous 24 hours

 ConditionsComfort  
Time TempWeatherWind HumidityBarometerVisibility
6:00 PM
Sun, Aug 2
55 °FScattered clouds.10 mph77%30.01 "Hg31 mi
5:00 PM55 °FScattered clouds.12 mph73%30.01 "Hg31 mi
4:00 PM53 °FPassing clouds.8 mph79%30.01 "Hg31 mi
3:00 PM54 °FScattered clouds.9 mph79%30.01 "Hg31 mi
2:00 PM54 °FPassing clouds.12 mph82%30.00 "Hg25 mi
1:00 PM58 °FScattered clouds.7 mph67%29.98 "Hg31 mi
11:00 AM54 °FCool.9 mph70%29.95 "Hg34 mi
10:00 AM53 °FPartly sunny.10 mph79%29.93 "Hg31 mi
9:00 AM53 °FScattered clouds.12 mph83%29.90 "Hg31 mi
8:00 AM52 °FPassing clouds.12 mph81%29.88 "Hg31 mi
7:00 AM51 °FPassing clouds.6 mph92%29.87 "Hg28 mi
6:00 AM49 °FPassing clouds.7 mph96%29.85 "Hg19 mi
5:00 AM49 °FPartly sunny.7 mph96%29.83 "Hg16 mi
3:00 AM48 °FOvercast.3 mph95%29.81 "Hg17 mi
2:00 AM48 °FOvercast.3 mph95%29.79 "Hg16 mi
11:00 PM
Sat, Aug 1
51 °FOvercast.6 mph95%29.76 "Hg11 mi
9:00 PM52 °FLow clouds.8 mph88%29.75 "Hg19 mi
8:00 PM53 °FPartly sunny.12 mph90%29.74 "Hg28 mi
Weather by CustomWeather, © 2015

See weather overviewHow to use our weather pages